Regional Weather Roundup
Issued by NWS

Home | Current Version | Previous Version | Text Only | Print | Product List | Glossary On
Versions: 1 2 3 4 5 6 7 8 9 10 11 12 13 14 15 16 17 18 19 20 21 22 23 24 25 26 27 28 29 30 31 32 33 34 35 36 37 38 39 40 41 42 43 44 45 46 47 48 49 50
752
ASUS43 KLMK 041502
RWRKY
KENTUCKY REGIONAL WEATHER ROUNDUP
NATIONAL WEATHER SERVICE LOUISVILLE KY
1000 AM EST SUN DEC 04 2016

NOTE "FAIR" INDICATES FEW OR NO CLOUDS BELOW 12,000 FEET
WITH NO SIGNIFICANT WEATHER AND/OR OBSTRUCTIONS TO VISIBILITY.

KYZ001>023-026-027-061>063-070>075-041600-
WESTERN AND SOUTH CENTRAL KENTUCKY

CITY           SKY/WX    TMP DP  RH WIND       PRES   REMARKS
PADUCAH        CLOUDY    42  38  85 SE8       30.00F FOG
HENDERSON      CLOUDY    39  36  87 SE7       30.05R WCI  34
OWENSBORO      CLOUDY    41  39  93 SE10      30.06S
HOPKINSVILLE   DRIZZLE   42  42 100 SE5       30.03R
BOWLING GREEN  CLOUDY    43  41  93 E9        30.05F
GLASGOW        NOT AVBL
$$

KYZ024-025-028>034-038-045-046-053-041600-
NORTH CENTRAL KENTUCKY

CITY           SKY/WX    TMP DP  RH WIND       PRES   REMARKS
LOUISVILLE/SDF CLOUDY    43  32  65 E8        30.09F
LOUISVILLE/LOU CLOUDY    42  33  70 E8        30.10F
FORT KNOX      CLOUDY    39  37  91 E12       30.05F WCI  32
$$

KYZ035>037-039>044-047>052-055>060-089>105-041600-
NORTHEAST KENTUCKY

CITY           SKY/WX    TMP DP  RH WIND       PRES   REMARKS
LEXINGTON      PTSUNNY   41  33  73 E9        30.13F
COVINGTON      CLOUDY    39  29  67 E9        30.13F WCI  33
FRANKFORT      CLOUDY    42  32  67 E9        30.12F
$$

KYZ054-064>069-076>088-106>120-041600-
SOUTHEAST KENTUCKY

CITY           SKY/WX    TMP DP  RH WIND       PRES   REMARKS
JACKSON        LGT RAIN  37  31  78 VRB3      30.15F
LONDON         CLOUDY    39  36  89 E5        30.14F
SOMERSET       NOT AVBL
MIDDLESBORO    RAIN      41  40  97 NW5       30.14F
MONTICELLO     CLOUDY    43  39  86 VRB5      30.11F
$$





USA.gov is the U.S. government's official web portal to all federal, state and local government web resources and services.